User: anonymous   Login
Location: Unspecified
(0.0000°N, 0.0000°E)
Time: 00:49:19
(UTC+00:00)
Language:

Tiangong 1 - Orbit

View from above orbital plane
View from above orbital plane
View from above satellite
View from above satellite

Ground track
Ground track

The orbit data is extracted from the following two-line orbital elements,

1 37820U 11053A   17016.82810185  .00011240  00000-0  88249-4 0  9991
2 37820  42.7615  41.8146 0015919  87.3717 270.9911 15.71405985304099
Epoch (UTC): 16 January 2017 19:52:28
Eccentricity: 0.0015919
inclination: 42.7615°
perigee height: 344 km
apogee height: 365 km
right ascension of ascending node: 41.8146°
argument of perigee: 87.3717°
revolutions per day: 15.71405985
mean anomaly at epoch: 270.9911°
orbit number at epoch: 30409

The dashed part of the orbit path shows where the satellite is in the earth's shadow,  

DLR